Kenora, Ontario

12:20 PM CDT on August 28, 2016 (GMT -0500)
Kenora

Weather History for CYQK - January, 2014

Change the Weather History Date:

Saturday, January 11, 2014

  Actual Average Record
Temperature  
Mean Temperature 17 °F -  
Max Temperature 20 °F 11 °F 33 °F (2012)
Min Temperature 14 °F -7 °F -23 °F (1999)
Degree Days  
Heating Degree Days 48    
Moisture  
Dew Point 17 °F    
Average Humidity 93    
Maximum Humidity 100    
Minimum Humidity 83    
Precipitation  
Precipitation 0.02 in 0.03 in - ()
Sea Level Pressure  
Sea Level Pressure 29.52 in    
Wind  
Wind Speed 6 mph ()    
Max Wind Speed 13 mph    
Max Gust Speed 18 mph    
Visibility 3.9 miles    
Events Fog , Rain , Snow    
Averages and records for this station are not official NWS values.
T = Trace of Precipitation, MM = Missing Value Source: Averaged Metar Reports

Daily Weather History Graph

Daily Weather History Graph

Search for Another Location

Airport or City:

Trip Planner

Search our weather history database for the weather conditions in past years. The results will help you decide how hot, cold, wet, or windy it might be!

Date:

Astronomy

Jan. 11, 2014 Rise Set
Actual Time 8:11 AM CST 4:39 PM CST
Civil Twilight 7:34 AM CST 5:16 PM CST
Nautical Twilight 6:54 AM CST 5:57 PM CST
Astronomical Twilight 6:15 AM CST 6:35 PM CST
Moon 1:28 PM CST (1/11) 4:12 AM CST (1/11)
Length of Visible Light 9h 41m
Length of Day
8h 27m
Waxing Gibbous, 83% of the Moon is Illuminated
Jan 11
Waxing Gibbous
Jan 15
Full
Jan 23
Last Quarter
Jan 30
New
Feb 6
First Quarter

Hourly Weather History & Observations

Time (CST) Temp. Windchill Dew Point Humidity Pressure Visibility Wind Dir Wind Speed Gust Speed Precip Events Conditions
12:00 AM 23 °F - 22 °F 95% 29.45 in 0 mi South 3.5 mph - - Rain Light Freezing Drizzle
12:00 AM 23.0 °F 18.4 °F 23.0 °F 100% 29.45 in 0.4 mi South 3.5 mph - N/A Fog Light Freezing Drizzle
1:00 AM 23.0 °F 17.0 °F 23.0 °F 100% 29.44 in 0.4 mi SSW 4.6 mph - N/A Fog Light Freezing Drizzle
2:00 AM 24.8 °F 17.9 °F 23.0 °F 93% 29.44 in 0.4 mi WNW 5.8 mph - N/A Fog , Snow Light Freezing Drizzle
2:32 AM 24.8 °F 19.1 °F 23.0 °F 93% 29.45 in 1.0 mi WNW 4.6 mph - N/A Snow Light Snow
3:00 AM 24.8 °F 16.1 °F 23.0 °F 93% 29.45 in 2.0 mi WNW 8.1 mph - N/A Snow Light Snow
4:00 AM 23.0 °F 13.1 °F 21.2 °F 93% 29.46 in 2.0 mi NW 9.2 mph 17.3 mph N/A Snow Light Snow
4:31 AM 23.0 °F 12.4 °F 21.2 °F 93% 29.47 in 1.5 mi NW 10.4 mph - N/A Snow Light Snow
5:00 AM 21.2 °F 10.1 °F 19.4 °F 93% 29.48 in 1.5 mi WNW 10.4 mph 17.3 mph N/A Snow Light Snow
6:00 AM 20 °F - 19 °F 92% 29.50 in 1 mi NW 9.2 mph - - Snow Light Snow
6:00 AM 21.2 °F 10.1 °F 19.4 °F 93% 29.50 in 1.5 mi NW 10.4 mph - N/A Snow Light Snow
6:33 AM 19.4 °F 7.2 °F 17.6 °F 93% 29.51 in 2.0 mi WNW 11.5 mph 18.4 mph N/A Snow Light Snow
7:00 AM 19.4 °F 6.6 °F 17.6 °F 93% 29.51 in 2.0 mi NW 12.7 mph - N/A Snow Light Snow
8:00 AM 17.6 °F 8.2 °F 15.8 °F 93% 29.52 in 1.5 mi WNW 6.9 mph - N/A   Overcast
8:46 AM 15.8 °F 2.7 °F 14.0 °F 93% 29.53 in 2.0 mi NNW 11.5 mph - N/A   Overcast
9:00 AM 15.8 °F 6.1 °F 14.0 °F 93% 29.54 in 2.0 mi NW 6.9 mph - N/A   Overcast
10:00 AM 15.8 °F 5.1 °F 14.0 °F 93% 29.55 in 2.0 mi NW 8.1 mph - N/A Snow Light Snow
11:00 AM 15.8 °F 5.1 °F 12.2 °F 86% 29.57 in 2.0 mi NW 8.1 mph - N/A Snow Light Snow
11:16 AM 14.0 °F 3.9 °F 12.2 °F 93% 29.56 in 3.0 mi NW 6.9 mph - N/A Snow Light Snow
12:00 PM 15 °F - 12 °F 83% 29.56 in 4 mi WNW 9.2 mph - - Snow Light Snow
12:00 PM 14.0 °F 2.0 °F 12.2 °F 93% 29.56 in 4.0 mi WNW 9.2 mph - N/A Snow Light Snow
1:00 PM 15.8 °F 5.1 °F 14.0 °F 93% 29.55 in 5.0 mi NNW 8.1 mph - N/A Snow Light Snow
2:00 PM 15.8 °F 7.2 °F 14.0 °F 93% 29.55 in 5.0 mi WNW 5.8 mph - N/A Snow Light Snow
3:00 PM 17.6 °F 9.3 °F 15.8 °F 93% 29.55 in 8.0 mi WNW 5.8 mph - N/A   Overcast
4:00 PM 17.6 °F 9.3 °F 15.8 °F 93% 29.57 in 8.0 mi NW 5.8 mph - N/A   Overcast
5:00 PM 17.6 °F 9.3 °F 15.8 °F 93% 29.58 in 8.0 mi West 5.8 mph - N/A   Overcast
5:31 PM 17.6 °F 9.3 °F 15.8 °F 93% 29.57 in 8.0 mi West 5.8 mph - N/A   Overcast
6:00 PM 18 °F - 16 °F 89% 29.56 in 7 mi Calm Calm - -   Partly Cloudy
6:00 PM 17.6 °F 9.3 °F 15.8 °F 93% 29.56 in 8.0 mi West 5.8 mph - N/A   Overcast
7:00 PM 17.6 °F 8.2 °F 15.8 °F 93% 29.57 in 10.0 mi SSW 6.9 mph - N/A   Mostly Cloudy
8:00 PM 17.6 °F 8.2 °F 15.8 °F 93% 29.55 in 10.0 mi SSW 6.9 mph - N/A   Overcast
9:00 PM 17.6 °F 7.3 °F 15.8 °F 93% 29.52 in 8.0 mi SSW 8.1 mph - N/A   Overcast
10:00 PM 17.6 °F 8.2 °F 15.8 °F 93% 29.52 in 8.0 mi SSW 6.9 mph - N/A   Overcast
11:00 PM 17.6 °F 5.0 °F 15.8 °F 93% 29.51 in 3.0 mi South 11.5 mph - N/A   Overcast